Regional Weather Roundup
Issued by NWS Upton, NY

Current Version | Previous Version | Graphics & Text | Print | Product List | Glossary Off
Versions: 1 2 3 4 5 6 7 8 9 10 11 12 13 14 15 16 17 18 19 20 21 22 23 24 25 26 27 28 29 30 31 32 33 34 35 36 37 38 39 40 41 42 43 44 45 46 47 48 49 50
000 ASUS41 KOKX 030604 RWROKX REGIONAL WEATHER ROUNDUP NATIONAL WEATHER SERVICE NEW YORK NY 200 AM EDT THU SEP 03 2015 NOTE: "FAIR" INDICATES FEW OR NO CLOUDS BELOW 12,000 FEET WITH NO SIGNIFICANT WEATHER AND/OR OBSTRUCTIONS TO VISIBILITY. NYZ071-072-176-178-NJZ106-104-030700- NEW YORK CITY METRO AREA CITY SKY/WX TMP DP RH WIND PRES REMARKS CENTRAL PARK FAIR 78 70 76 CALM 29.90S LAGUARDIA APRT FAIR 80 70 71 SW3 29.86F KENNEDY INTL FAIR 75 71 87 SW6 29.88F NEWARK/LIBERTY FAIR 77 69 76 W5 29.87F BRNX BOT. GARD N/A 77 70 78 W2 29.88S TETERBORO FAIR 75 68 78 CALM 29.87S $$ NYZ177-179-078>081-030700- LONG ISLAND NEW YORK CITY SKY/WX TMP DP RH WIND PRES REMARKS FARMINGDALE MOCLDY 76 73 91 CALM 29.87F ISLIP FAIR 72 68 87 CALM 29.86F SHIRLEY FAIR 72 67 84 W3 29.88F WESTHAMPTON FAIR 65 64 97 CALM 29.89F FOG MONTAUK POINT N/A 73 70 90 SW3 29.89S $$ NYZ052-065-067-030700- HUDSON VALLEY CITY SKY/WX TMP DP RH WIND PRES REMARKS WHITE PLAINS FAIR 69 66 90 NW5 29.88F NEWBURGH NOT AVBL MONTGOMERY FAIR 64 63 96 CALM 29.89F FOG POUGHKEEPSIE FAIR 67 64 90 CALM 29.88S ALBANY MOCLDY 70 65 84 CALM 29.89F $$ NJZ001-105-106-008-010-013-015-019>022-104-030700- NEW JERSEY CITY SKY/WX TMP DP RH WIND PRES REMARKS NEWARK/LIBERTY FAIR 77 69 76 W5 29.87F TETERBORO FAIR 75 68 78 CALM 29.87S CALDWELL FAIR 71 66 84 CALM 29.89S MORRISTOWN FAIR 64 59 82 CALM 29.90S HAZE SOMERVILLE FAIR 67 64 90 CALM 29.88S FOG SUSSEX FAIR 64 62 93 CALM 29.91F FOG ANDOVER N/A 65 64 97 CALM 29.92F TRENTON FAIR 72 66 81 NW6 29.88F MILLVILLE FAIR 68 66 93 W5 29.89F FOG ATLANTIC CITY FAIR 73 69 87 W5 29.88F WRIGHTSTOWN FAIR 71 70 97 W3 29.86F TOMS RIVER FAIR 70 68 94 CALM 29.88F BELMAR FAIR 72 66 83 W6 29.88F $$ PAZ047>061-062-071-030700- EASTERN PENNSYLVANIA CITY SKY/WX TMP DP RH WIND PRES REMARKS PHILADELPHIA FAIR 77 71 82 CALM 29.89F ALLENTOWN FAIR 70 65 84 CALM 29.92S SCRANTON FAIR 68 62 81 E6 29.95S $$ CTZ002-004>006-009-010-012-RIZ004-006-007-MAZ004-011-015-030700- SOUTHERN NEW ENGLAND IN CT CITY SKY/WX TMP DP RH WIND PRES REMARKS BRADLEY INTL FAIR 69 65 86 CALM 29.86F HARTFORD FAIR 69 66 90 S3 29.87S DANBURY FAIR 65 61 87 SW3 29.91S WTRBRY/OXFORD FAIR 68 61 77 NW3 29.92R BRIDGEPORT FAIR 73 65 75 N5 29.87F MERIDEN FAIR 67 63 87 CALM 29.88F NEW HAVEN FAIR 69 65 86 CALM 29.88S CHESTER NOT AVBL GROTON FAIR 69 69 100 CALM 29.87F WILLIMANTIC FAIR 66 63 90 CALM 29.88S IN RI CITY SKY/WX TMP DP RH WIND PRES REMARKS PROVIDENCE FAIR 70 64 81 W5 29.87S BLOCK ISLAND FAIR 70 68 94 W10 29.88F WESTERLY FAIR 69 67 93 CALM 29.87F IN MA CITY SKY/WX TMP DP RH WIND PRES REMARKS BOSTON FAIR 74 65 73 W7 29.84F WORCESTER FAIR 70 63 78 W10 29.90F WESTFIELD FAIR 66 64 93 CALM 29.87F PROVINCETOWN N/A 68 61 77 SW7 29.85S NANTUCKET N/A N/A N/A N/A MISG 29.87F $$ ANZ330-335-338-340-345-350-353-355-030700- COASTAL MARINE OBSERVATIONS STATION/POSITION TIME SKY/WX TEMP WIND PRES VSBY WAVE AIR SEA DIR/SP/G HT/PER (UTC) (F) (DEG/KT/KT) (MB) (MI) (FT/S) NY HARB ENTRANCE 0450 76 77 220/ 10/ 12 1011.5 2/ 7 4S FIRE IS NOT AVBL 20S FIRE ISLAND 0450 75 75 210/ 8/ 10 1011.8 2/ 6 GREAT SOUTH BAY 0500 76 79 240/ 10/ 12 N/A 23SW MTP 0550 74 73 230/ 8/ 8 1011.3 2/ 7 HUDSON CANYON NOT AVBL KINGS POINT 0500 76 74 190/ 4/ 5 1010.8 EXECUTION ROCKS 0500 76 200/ 4/ 6 N/A CENTRAL LI SOUND NOT AVBL EASTERN LI SOUND 0500 72 71 240/ 6/ 6 N/A ROBBINS REEF 0500 76 190/ 5/ 5 1010.7 $$ >>>>>>>>>>>>>>>>>>>>>>>>>>>> KEY <<<<<<<<<<<<<<<<<<<<<<<<<<< > < > SKY/WX - SKY CONDITION/PRESENT WEATHER < > TMP - TEMPERATURE IN FAHRENHEIT < > DP - DEWPOINT IN FAHRENHEIT < > RH - RELATIVE HUMIDITY IN PERCENT < > WIND - DIRECTION AND SPEED IN MPH < > PRES - MEAN SEA LEVEL PRESSURE IN INCHES OF HG < > WCI - WIND CHILL INDEX < > VSB - VISIBILITY IN MILES < > HX - HEAT INDEX < > TC - TEMPERATURE IN CELSIUS < > VRB - VARIABLE WIND DIRECTION < > < >>>>>>>>>>>>>>>>>>>>>>>>>>>> KEY <<<<<<<<<<<<<<<<<<<<<<<<<<<

USA.gov is the U.S. government's official web portal to all federal, state and local government web resources and services.